This demonstration page uses our WeatherBlox Daily Observations layout. Learn more.

Left ArrowRight Arrow

34.74481, -87.66753

Hourly Observations for April 20, 2017

Temp ( °F °C ) Dew Point ( °F °C ) Humidity (%) Winds ( mph kmh ) Pressure ( in mb ) Visibility ( mi km ) Precip ( " mm )
12:53 am 00:53 Clear 63 17.2 59 15 87 87 Calm 30.14 1021 10 16 0.00 0.00
1:53 am 01:53 Clear 62 16.7 59 15 90 90 Calm 30.13 1020 10 16 0.00 0.00
2:53 am 02:53 Clear 61 16.1 58 14.4 90 90 Calm 30.13 1020 10 16 0.00 0.00
3:53 am 03:53 Mostly Clear 61 16.1 57 13.9 87 87 ESE 3 6 30.12 1020 10 16 0.00 0.00
4:53 am 04:53 Clear 61 16.1 56 13.3 84 84 SE 5 7 30.12 1020 10 16 0.00 0.00
5:53 am 05:53 Clear 61 16.1 56 13.3 84 84 Calm 30.13 1020 10 16 0.00 0.00
6:53 am 06:53 Sunny 60 15.6 57 13.9 90 90 SE 3 6 30.14 1021 9 14 0.00 0.00
7:53 am 07:53 Sunny 67 19.4 59 15 76 76 Calm 30.16 1021 10 16 0.00 0.00
8:53 am 08:53 Sunny 72 22.2 61 16.1 68 68 Calm 30.16 1021 9 14 0.00 0.00
9:53 am 09:53 Sunny 75 23.9 62 16.7 64 64 VRB 3 6 30.15 1021 10 16 0.00 0.00
10:53 am 10:53 Partly Cloudy 79 26.1 64 17.8 60 60 W 6 9 30.15 1021 10 16 0.00 0.00
11:53 am 11:53 Mostly Cloudy 81 27.2 63 17.2 54 54 VRB 7 11 30.13 1020 10 16 0.00 0.00
12:53 pm 12:53 Partly Cloudy 83 28.3 60 15.6 46 46 SW 14 22 30.10 1019 10 16 0.00 0.00
1:53 pm 13:53 Partly Cloudy 84 28.9 57 13.9 40 40 SSW 14 22 30.07 1018 10 16 0.00 0.00
2:20 pm 14:20 Partly Cloudy 83 28.3 60 15.6 46 46 SW 12 19 30.06 1018 10 16 0.00 0.00
2:53 pm 14:53 Mostly Sunny 83 28.3 59 15 44 44 W 10 17 30.05 1018 10 16 0.00 0.00
3:53 pm 15:53 Partly Cloudy 83 28.3 56 13.3 40 40 SSW 15 24 30.02 1017 10 16 0.00 0.00
4:53 pm 16:53 Sunny 85 29.4 56 13.3 37 37 SW 14 22 30.00 1016 10 16 0.00 0.00
5:53 pm 17:53 Sunny 83 28.3 56 13.3 40 40 WSW 10 17 30.00 1016 10 16 0.00 0.00
6:53 pm 18:53 Sunny 79 26.1 57 13.9 47 47 WSW 7 11 30.01 1016 10 16 0.00 0.00
7:53 pm 19:53 Clear 77 25 58 14.4 52 52 SW 3 6 30.02 1017 10 16 0.00 0.00
8:53 pm 20:53 Mostly Clear 71 21.7 61 16.1 71 71 S 3 6 30.03 1017 10 16 0.00 0.00
9:53 pm 21:53 Clear 70 21.1 60 15.6 71 71 SSW 3 6 30.03 1017 10 16 0.00 0.00
10:53 pm 22:53 Clear 71 21.7 59 15 66 66 SSW 3 6 30.03 1017 10 16 0.00 0.00
11:53 pm 23:53 Mostly Clear 70 21.1 59 15 68 68 SSW 6 9 30.02 1017 10 16 0.00 0.00

Powered by AerisWeather